Other Public Products
Issued by NWS Grand Forks, ND

Home | Current Version | Previous Version | Text Only | Print | Product List | Glossary Off
Versions: 1 2 3 4 5 6 7 8 9 10 11 12 13 14 15 16 17 18 19 20 21 22 23 24 25 26 27 28 29 30 31 32 33 34 35 36 37 38 39 40 41 42 43 44 45 46 47 48 49 50

000
FPUS83 KFGF 240031
OPUFGF
PRAIRIE TO PINES WEATHER ROUNDUP
NATIONAL WEATHER SERVICE EASTERN NORTH DAKOTA/GRAND FORKS ND
700 PM CDT WED APR 23 2014

 **SATELLITE DATA USED TO AUGMENT SKY COVER AT AUTOMATED STATIONS**
 *****  WEATHER ACROSS EASTERN NORTH DAKOTA  *****

CITY           SKY/WX    TMP DP  RH WIND       PRES   REMARKS
GRAND FORKS    LGT RAIN  42  39  89 SE24G30   29.85S
6HR MIN TEMP:  42; 6HR MAX TEMP:  45; 6HR PCP:  0.35;

GRAND FORKS AF LGT RAIN  41  41 100 SE18G26   29.83F
GRAND CITY NWS   N/A     39 N/A N/A SE21        N/A
BUXTON           N/A     40  40  99 E17G29      N/A
DEVILS LAKE    CLOUDY    39  32  75 SE23G29   29.73F
6HR MIN TEMP:  37; 6HR MAX TEMP:  43; 6HR PCP:  0.27;

FARGO          LGT RAIN  42  38  85 SE22G29   29.80F
6HR MIN TEMP:  42; 6HR MAX TEMP:  44; 6HR PCP:  0.07;

WAHPETON ARPT  CLOUDY    41  34  75 SE23G31   29.79S
$$

 *****  WEATHER ACROSS CENTRAL AND WESTERN NORTH DAKOTA  *****

CITY           SKY/WX    TMP DP  RH WIND       PRES   REMARKS
JAMESTOWN      CLOUDY    41  39  93 SE21G29   29.69R
6HR MIN TEMP:  41; 6HR MAX TEMP:  49; 6HR PCP:  0.21;

BISMARCK       CLOUDY    53  40  61 W20G29    29.63R
6HR MIN TEMP:  53; 6HR MAX TEMP:  58; 6HR PCP:  0.01;

MINOT          CLOUDY    45  42  89 SE14      29.59R
6HR MIN TEMP:  45; 6HR MAX TEMP:  50; 6HR PCP:  0.07;

MINOT AFB      CLOUDY    44  44  99 SE14G25   29.60R
6HR MIN TEMP:  44; 6HR MAX TEMP:  49; 6HR PCP:  0.04;

GARRISON         N/A     46  42  86 NW15      29.60R
6HR MIN TEMP:  46; 6HR MAX TEMP:  58; 6HR PCP:  0.09;

WILLISTON      CLOUDY    53  40  61 NW10      29.57S
6HR MIN TEMP:  46; 6HR MAX TEMP:  58; 6HR PCP:  0.09;

DICKINSON      MOSUNNY   55  27  34 W23G29    29.61R
6HR MIN TEMP:  47; 6HR MAX TEMP:  60; 6HR PCP: TRACE;

HETTINGER      MOSUNNY   53  32  44 W21G31    29.66R
6HR MIN TEMP:  49; 6HR MAX TEMP:  57;

$$

 *****  OTHER OBSERVATIONS NORTHEAST NORTH DAKOTA  *****

CITY           SKY/WX    TMP DP  RH WIND       PRES   REMARKS
WALHALLA       MIX PCPN  41  41 100 SE14G28   29.84F
LANGDON        MIX PCPN  39  37  93 SE28G33   29.77S
CAVALIER       MIX PCPN  41  41 100 SE14G21   29.85F
GRAFTON        MIX PCPN  41  41 100 SE21G28   29.85F
CANDO          MIX PCPN  39  37  93 SE28G37   29.73F
FORT TOTTEN      N/A     40  38  93 SE14      29.95S
ROLLA          MIX PCPN  37  37 100 SE25G37   29.72F
RUGBY          LGT RAIN  39  39 100 SE24G31   29.66S
 ***** THE ABOVE OBSERVATIONS ARE NON NWS ARE NOT QUALITY
        CONTROLLED AND MAY MIS-REPORT RAIN FOR SNOW...
$$

 *****  OTHER OBSERVATIONS SOUTHEAST NORTH DAKOTA *****

CITY           SKY/WX    TMP DP  RH WIND       PRES   REMARKS
COOPERSTOWN    MIX PCPN  39  39 100 SE21G32   29.75R
VALLEY CITY    FAIR      39  39 100 SE18G28   29.73R
OAKES          MOCLDY    39  39 100 E17       29.70R
GWINNER        CLOUDY    41  41 100 SE29G38   29.69F
BUFFALO          N/A     41  37  87 SE30        N/A
WYNDMERE       NOT AVBL
 ***** THE ABOVE OBSERVATIONS ARE NON NWS ARE NOT QUALITY
       CONTROLLED AND MAY MIS-REPORT RAIN FOR SNOW...
$$

  *****  WEATHER ACROSS NORTHERN MINNESOTA  *****

CITY           SKY/WX    TMP DP  RH WIND       PRES   REMARKS
FLAG ISLAND    CLOUDY    50  23  34 E9        29.89F
WARROAD        CLOUDY    52  30  43 S12G18    29.91R
ROSEAU         CLOUDY    52  27  37 SE13      29.90R
HALLOCK        RAIN      45  43  93 S14       29.89R
THF RVR FALLS  CLOUDY    41  37  87 SE16      29.92R
6HR MIN TEMP:  43; 6HR MAX TEMP:  52; 6HR PCP:  0.09;

HALSTAD          N/A     41  37  88 SE25        N/A
FOSSTON        RAIN      37  36  93 SE14      29.89F
BAUDETTE       CLOUDY    53  24  32 S10       29.91S
6HR MIN TEMP:  53; 6HR MAX TEMP:  58;

WASKISH        CLOUDY    50  28  43 SE14      29.92F
CROOKSTON      MIX PCPN  39  39 100 SE15      29.89R
$$
  *****  WEATHER ACROSS CENTRAL AND WEST MINNESOTA  *****

CITY           SKY/WX    TMP DP  RH WIND       PRES   REMARKS
BEMIDJI        CLOUDY    37  35  91 SE14      29.94R
PARK RAPIDS    LGT SNOW  34  33  96 E12       29.91F FOG
6HR MIN TEMP:  34; 6HR MAX TEMP:  49; 6HR PCP:  0.42;

WADENA         TSTM      36  36 100 E13G24    29.89S
DETROIT LAKES  MIX PCPN  36  36 100 SE18G28   29.86S
MOORHEAD       LGT RAIN  43  41  93 SE15G26   29.81F
FERGUS FALLS   CLOUDY    41  36  81 SE25G32   29.77F
ELBOW LAKE     CLOUDY    41  36  83 SE18G29   29.81S
6HR MIN TEMP:  40; 6HR MAX TEMP:  42; 6HR PCP:  0.09;

MORRIS MN      CLOUDY    43  36  75 SE25G31   29.80F
STAPLES        CLOUDY    36  36 100 SE6       29.92F
WHEATON        CLOUDY    45  39  81 E25G36    29.79F
$$
  *****  WEATHER ELSEWHERE ACROSS MINNESOTA  *****

CITY           SKY/WX    TMP DP  RH WIND       PRES   REMARKS
DULUTH         CLOUDY    42  23  46 E13       29.99F
6HR MIN TEMP:  42; 6HR MAX TEMP:  50;

INTRNTL FALLS  CLOUDY    52  24  33 SE10      29.94F
6HR MIN TEMP:  52; 6HR MAX TEMP:  56;

ELY            CLOUDY    45  19  36 SE8       30.01S
CLOQUET        CLOUDY    41  25  52 E7        29.98F
BRAINERD       RAIN      42  35  76 VRB3      29.96R
6HR MIN TEMP:  42; 6HR MAX TEMP:  55; 6HR PCP:  0.16;

HIBBING        CLOUDY    49  24  37 SE12      29.96F
6HR MIN TEMP:  49; 6HR MAX TEMP:  56;

ALEXANDRIA     CLOUDY    40  37  89 SE18G25   29.87S
6HR MIN TEMP:  39; 6HR MAX TEMP:  40; 6HR PCP:  0.08;

SAINT CLOUD    CLOUDY    41  37  86 E10G22    29.92F
6HR MIN TEMP:  41; 6HR MAX TEMP:  45; 6HR PCP:  0.28;

MINNEAPOLIS    CLOUDY    42  38  85 SE14      29.94F
6HR MIN TEMP:  40; 6HR MAX TEMP:  44; 6HR PCP:  0.19;

$$

  *****  WEATHER ACROSS SOUTH DAKOTA  *****

CITY           SKY/WX    TMP DP  RH WIND       PRES   REMARKS
SIOUX FALLS    PTSUNNY   59  41  51 SE23G38   29.64R
6HR MIN TEMP:  56; 6HR MAX TEMP:  65;

BROOKINGS      NOT AVBL
WATERTOWN      CLOUDY    48  38  68 SE25G36   29.67F
6HR MIN TEMP:  45; 6HR MAX TEMP:  53;

HURON          CLOUDY    67  42  40 SE18G28   29.55R
6HR MIN TEMP:  62; 6HR MAX TEMP:  70;

SISSETON         N/A     42  37  82 SE20G30   29.73F
ABERDEEN       CLOUDY    49  43  80 E24G32    29.60F
6HR MIN TEMP:  49; 6HR MAX TEMP:  59; 6HR PCP:  0.06;

MITCHELL       PTSUNNY   68  45  43 SE24G35   29.55R
PIERRE         MOSUNNY   60  42  51 NW32G45   29.58R
6HR MIN TEMP:  60; 6HR MAX TEMP:  73;

MOBRIDGE       CLOUDY    57  41  55 NW21      29.60R
RAPID CITY     PTSUNNY   57  36  45 N25G37    29.65R
6HR MIN TEMP:  53; 6HR MAX TEMP:  65;

$$

  *****  SOME WEATHER IN NEARBY STATES *****

CITY           SKY/WX    TMP DP  RH WIND       PRES   REMARKS
GLASGOW MT     PTSUNNY   59  20  22 W26G36    29.55S
6HR MIN TEMP:  51; 6HR MAX TEMP:  60;

GREAT FALLS MT PTSUNNY   49  26  41 SW29G36   29.70R
6HR MIN TEMP:  44; 6HR MAX TEMP:  54;

CHEYENNE WY    CLOUDY    50  18  28 NW25G39   29.74R
6HR MIN TEMP:  50; 6HR MAX TEMP:  59;

SCOTTSBLUFF NE CLOUDY    61  13  15 W16       29.69R
6HR MIN TEMP:  61; 6HR MAX TEMP:  67;

OMAHA NE       CLOUDY    56  44  64 SE25G39   29.63F
6HR MIN TEMP:  51; 6HR MAX TEMP:  58; 6HR PCP:  0.02;

DES MOINES IA  CLOUDY    49  40  71 SE13G22   29.84F
6HR MIN TEMP:  46; 6HR MAX TEMP:  49; 6HR PCP:  0.16;

DAVENPORT IA   LGT RAIN  48  40  73 SE10      30.01F
6HR MIN TEMP:  48; 6HR MAX TEMP:  56; 6HR PCP:  0.09;

CHICAGO IL     CLOUDY    44  20  38 E8        30.11F
6HR MIN TEMP:  44; 6HR MAX TEMP:  51;

EAU CLAIRE WI  LGT RAIN  43  38  82 SE8       29.99F
6HR MIN TEMP:  43; 6HR MAX TEMP:  53; 6HR PCP:  0.02;

LA CROSSE WI   CLOUDY    46  36  68 E9        29.98F
6HR MIN TEMP:  45; 6HR MAX TEMP:  53; 6HR PCP:  0.01;

$$

  *****  SOME NATIONAL WEATHER *****

CITY           SKY/WX    TMP DP  RH WIND       PRES   REMARKS
LA GUARDIA NY  MOCLDY    48  30  49 NW26G41   29.74R



USA.gov is the U.S. government's official web portal to all federal, state and local government web resources and services.